Location: Enborne
(51.3833°N, 1.3667°W)
Time: 10:00:38
(UTC+00:00)

NOSS 2-2 (C) - Visible Passes

Search period start: 20 June 2021 00:00
Search period end: 30 June 2021 00:00
Orbit: 458 x 1749 km, 63.3° (Epoch: 02 May)

Date Brightness Start Highest point End Pass type
(mag) Time Alt. Az. Time Alt. Az. Time Alt. Az.
20 Jun 3.2 02:21:26 14° SSW 02:24:18 61° SE 02:28:06 10° NE visible
21 Jun 4.1 01:37:08 19° S 01:39:00 31° ESE 01:42:21 10° ENE visible
22 Jun 4.9 00:52:48 15° SE 00:53:49 17° ESE 00:56:14 10° ENE visible
22 Jun 3.6 02:40:26 10° WSW 02:43:49 54° NW 02:47:47 10° NE visible
23 Jun 3.0 01:55:48 17° SW 01:58:19 86° SE 02:02:14 10° NE visible
24 Jun 3.5 01:11:24 26° S 01:12:57 44° SE 01:16:35 10° NE visible
24 Jun 4.9 03:00:31 10° W 03:03:41 29° NNW 03:07:23 10° NE visible
25 Jun 4.4 00:26:59 22° SE 00:27:43 23° ESE 00:30:42 10° ENE visible
25 Jun 4.2 02:14:37 10° WSW 02:17:58 42° NW 02:21:51 10° NE visible
25 Jun 5.2 23:42:32 12° ESE 23:42:34 12° ESE 23:44:08 10° E visible
26 Jun 3.3 01:29:53 18° SW 01:32:23 70° NW 01:36:20 10° NE visible
27 Jun 3.1 00:45:23 30° SSW 00:46:56 64° SE 00:50:44 10° NE visible
27 Jun 5.3 02:34:51 10° W 02:37:55 25° NNW 02:41:28 10° NE visible
28 Jun 3.9 00:00:52 29° SSE 00:01:37 33° ESE 00:05:00 10° ENE visible
28 Jun 4.7 01:48:52 10° W 01:52:07 34° NNW 01:55:55 10° NE visible
28 Jun 4.7 23:16:18 18° ESE 23:16:25 18° ESE 23:18:54 10° ENE visible
29 Jun 3.8 01:03:39 14° WSW 01:06:27 52° NW 01:10:24 10° NE visible
29 Jun 5.8 02:55:15 10° WNW 02:58:04 19° N 03:01:20 10° NE visible
